| time (UTC) | temp F | wind direction | speed knots | gust knots | rain 1hr in | rain 24hr in | rain mn in | humidity % | barometer mb |
| 20260510021559 | 53 | 175 | 3.5 | 0.0 | 0.00 | 0.00 | 0.14 | 90 | 1002.3 |
| 20260510020058 | 54 | 193 | 3.5 | 0.0 | 0.00 | 0.00 | 0.14 | 89 | 1002.4 |
| 20260510014558 | 55 | 196 | 3.5 | 0.0 | 0.00 | 0.00 | 0.14 | 87 | 1002.4 |
| 20260510013056 | 57 | 272 | 3.5 | 0.0 | 0.00 | 0.00 | 0.06 | 82 | 1002.4 |
| 20260510011558 | 58 | 211 | 3.5 | 0.0 | 0.00 | 0.00 | 0.00 | 75 | 1001.6 |
| 20260510010126 | 58 | 221 | 3.5 | 0.0 | 0.00 | 0.00 | 0.00 | 73 | 1001.4 |
| 20260510004554 | 58 | 199 | 2.6 | 0.0 | 0.00 | 0.00 | 0.00 | 72 | 1001.5 |
| 20260510003054 | 58 | 167 | 2.6 | 0.0 | 0.00 | 0.00 | 0.00 | 71 | 1001.4 |
| 20260510001552 | 59 | 180 | 2.6 | 0.0 | 0.00 | 0.00 | 0.00 | 71 | 1001.4 |
| 20260510000052 | 59 | 173 | 2.6 | 0.0 | 0.00 | 0.00 | 0.00 | 70 | 1001.6 |
| 20260509234609 | 59 | 123 | 3.5 | 0.0 | 0.00 | 0.00 | 0.00 | 70 | 1001.5 |
| 20260509233047 | 59 | 163 | 2.6 | 0.0 | 0.00 | 0.00 | 0.00 | 69 | 1002.1 |
| 20260509231546 | 60 | 167 | 2.6 | 0.0 | 0.00 | 0.00 | 0.00 | 68 | 1002.4 |
| 20260509230046 | 60 | 248 | 1.7 | 0.0 | 0.00 | 0.00 | 0.00 | 68 | 1002.6 |
| 20260509224545 | 60 | 165 | 2.6 | 0.0 | 0.00 | 0.00 | 0.00 | 66 | 1002.6 |
| 20260509223045 | 61 | 272 | 4.3 | 0.0 | 0.00 | 0.00 | 0.00 | 65 | 1002.8 |
| 20260509221543 | 61 | 215 | 3.5 | 0.0 | 0.00 | 0.00 | 0.00 | 63 | 1002.7 |
| 20260509220042 | 61 | 226 | 4.3 | 0.0 | 0.00 | 0.00 | 0.00 | 60 | 1002.6 |
| 20260509214543 | 62 | 199 | 4.3 | 0.0 | 0.00 | 0.00 | 0.00 | 58 | 1002.6 |
| 20260509213047 | 62 | 173 | 4.3 | 0.0 | 0.00 | 0.00 | 0.00 | 57 | 1002.5 |
| 20260509211546 | 63 | 296 | 4.3 | 0.0 | 0.00 | 0.00 | 0.00 | 53 | 1002.5 |
| 20260509210037 | 64 | 225 | 4.3 | 0.0 | 0.00 | 0.00 | 0.00 | 52 | 1002.8 |
| 20260509204537 | 64 | 165 | 3.5 | 0.0 | 0.00 | 0.00 | 0.00 | 50 | 1002.9 |
| 20260509203042 | 64 | 199 | 4.3 | 0.0 | 0.00 | 0.00 | 0.00 | 50 | 1003.0 |
| 20260509201534 | 64 | 177 | 6.1 | 0.0 | 0.00 | 0.00 | 0.00 | 49 | 1002.9 |
| 20260509200032 | 64 | 166 | 5.2 | 0.0 | 0.00 | 0.00 | 0.00 | 47 | 1003.3 |
| 20260509194531 | 65 | 255 | 5.2 | 0.0 | 0.00 | 0.00 | 0.00 | 45 | 1003.6 |
| 20260509193031 | 65 | 229 | 3.5 | 0.0 | 0.00 | 0.00 | 0.00 | 49 | 1003.7 |
| 20260509191533 | 65 | 141 | 4.3 | 0.0 | 0.00 | 0.00 | 0.00 | 49 | 1003.8 |
| 20260509190027 | 65 | 211 | 4.3 | 0.0 | 0.00 | 0.00 | 0.00 | 51 | 1003.9 |
| 20260509184531 | 65 | 128 | 4.3 | 0.0 | 0.00 | 0.00 | 0.00 | 53 | 1004.2 |
| 20260509183022 | 64 | 186 | 5.2 | 0.0 | 0.00 | 0.00 | 0.00 | 52 | 1004.2 |
| 20260509181520 | 64 | 189 | 4.3 | 0.0 | 0.00 | 0.00 | 0.00 | 50 | 1004.4 |
| 20260509180020 | 64 | 291 | 4.3 | 0.0 | 0.00 | 0.00 | 0.00 | 49 | 1004.7 |
| 20260509174518 | 64 | 194 | 5.2 | 0.0 | 0.00 | 0.00 | 0.00 | 45 | 1004.8 |
| 20260509173017 | 64 | 90 | 4.3 | 0.0 | 0.00 | 0.00 | 0.00 | 48 | 1004.9 |
| 20260509171514 | 65 | 286 | 3.5 | 0.0 | 0.00 | 0.00 | 0.00 | 46 | 1004.9 |
| 20260509170013 | 64 | 61 | 4.3 | 0.0 | 0.00 | 0.00 | 0.00 | 45 | 1005.1 |
| 20260509164510 | 64 | 132 | 3.5 | 0.0 | 0.00 | 0.00 | 0.00 | 45 | 1005.5 |
| 20260509163009 | 64 | 190 | 2.6 | 0.0 | 0.00 | 0.00 | 0.00 | 43 | 1005.8 |
| 20260509161505 | 63 | 223 | 4.3 | 0.0 | 0.00 | 0.00 | 0.00 | 45 | 1005.9 |
| 20260509160001 | 63 | 225 | 4.3 | 0.0 | 0.00 | 0.00 | 0.00 | 45 | 1006.1 |
| 20260509154559 | 63 | 210 | 3.5 | 0.0 | 0.00 | 0.00 | 0.00 | 48 | 1006.4 |
| 20260509153056 | 63 | 291 | 3.5 | 0.0 | 0.00 | 0.00 | 0.00 | 47 | 1006.6 |
| 20260509151552 | 62 | 277 | 1.7 | 0.0 | 0.00 | 0.00 | 0.00 | 48 | 1006.8 |
| 20260509150048 | 61 | 169 | 3.5 | 0.0 | 0.00 | 0.00 | 0.00 | 46 | 1007.2 |
| 20260509144545 | 61 | 179 | 3.5 | 0.0 | 0.00 | 0.00 | 0.00 | 47 | 1007.2 |
| 20260509143041 | 60 | 188 | 3.5 | 0.0 | 0.00 | 0.00 | 0.00 | 48 | 1007.3 |
| 20260509141538 | 59 | 280 | 2.6 | 0.0 | 0.00 | 0.00 | 0.00 | 48 | 1007.3 |
| 20260509140034 | 58 | 163 | 4.3 | 0.0 | 0.00 | 0.00 | 0.00 | 48 | 1007.3 |
| 20260509134530 | 56 | 136 | 2.6 | 0.0 | 0.00 | 0.00 | 0.00 | 52 | 1007.5 |
| 20260509133026 | 54 | 140 | 2.6 | 0.0 | 0.00 | 0.00 | 0.00 | 56 | 1007.6 |
| 20260509131520 | 52 | 178 | 2.6 | 0.0 | 0.00 | 0.00 | 0.00 | 58 | 1007.7 |
| 20260509130028 | 51 | 182 | 2.6 | 0.0 | 0.00 | 0.00 | 0.00 | 59 | 1007.7 |
| 20260509124513 | 50 | 174 | 2.6 | 0.0 | 0.00 | 0.00 | 0.00 | 63 | 1007.8 |
| 20260509123009 | 48 | 190 | 0.9 | 0.0 | 0.00 | 0.00 | 0.00 | 68 | 1008.0 |
| 20260509121506 | 46 | 195 | 0.9 | 0.0 | 0.00 | 0.00 | 0.00 | 74 | 1008.2 |
| 20260509120001 | 44 | 153 | 0.0 | 0.0 | 0.00 | 0.00 | 0.00 | 76 | 1008.2 |
| 20260509114558 | 43 | 207 | 0.0 | 0.0 | 0.00 | 0.00 | 0.00 | 80 | 1008.3 |
| 20260509113059 | 42 | 207 | 0.0 | 0.0 | 0.00 | 0.00 | 0.00 | 83 | 1008.3 |
| 20260509111551 | 41 | 207 | 0.0 | 0.0 | 0.00 | 0.00 | 0.00 | 86 | 1008.2 |
| 20260509110050 | 39 | 207 | 0.0 | 0.0 | 0.00 | 0.00 | 0.00 | 88 | 1008.0 |
| 20260509104547 | 38 | 207 | 0.0 | 0.0 | 0.00 | 0.00 | 0.00 | 87 | 1008.0 |
| 20260509103045 | 38 | 206 | 0.0 | 0.0 | 0.00 | 0.00 | 0.00 | 85 | 1007.8 |
| 20260509101542 | 38 | 206 | 0.0 | 0.0 | 0.00 | 0.00 | 0.00 | 85 | 1007.8 |
| 20260509100039 | 38 | 206 | 0.0 | 0.0 | 0.00 | 0.00 | 0.00 | 84 | 1007.8 |
| 20260509094538 | 38 | 206 | 0.0 | 0.0 | 0.00 | 0.00 | 0.00 | 83 | 1008.0 |
| 20260509093036 | 38 | 206 | 0.0 | 0.0 | 0.00 | 0.00 | 0.00 | 83 | 1007.9 |
| 20260509091534 | 39 | 206 | 0.0 | 0.0 | 0.00 | 0.00 | 0.00 | 83 | 1007.9 |
| 20260509090033 | 39 | 207 | 0.0 | 0.0 | 0.00 | 0.00 | 0.00 | 82 | 1007.9 |
| 20260509084536 | 39 | 207 | 0.0 | 0.0 | 0.00 | 0.00 | 0.00 | 80 | 1008.0 |
| 20260509083037 | 39 | 207 | 0.0 | 0.0 | 0.00 | 0.00 | 0.00 | 79 | 1008.0 |
| 20260509081535 | 39 | 203 | 0.0 | 0.0 | 0.00 | 0.00 | 0.00 | 80 | 1008.1 |
| 20260509080036 | 39 | 198 | 0.9 | 0.0 | 0.00 | 0.00 | 0.00 | 79 | 1008.1 |
| 20260509074528 | 39 | 197 | 0.9 | 0.0 | 0.00 | 0.00 | 0.00 | 80 | 1008.2 |
| 20260509073025 | 39 | 217 | 0.9 | 0.0 | 0.00 | 0.00 | 0.00 | 82 | 1008.4 |
| 20260509071524 | 39 | 219 | 0.9 | 0.0 | 0.00 | 0.00 | 0.00 | 81 | 1008.4 |
| 20260509070022 | 39 | 205 | 0.9 | 0.0 | 0.00 | 0.00 | 0.00 | 79 | 1008.4 |
| 20260509064523 | 39 | 225 | 0.0 | 0.0 | 0.00 | 0.00 | 0.00 | 78 | 1008.4 |
| 20260509063017 | 39 | 225 | 0.0 | 0.0 | 0.00 | 0.00 | 0.00 | 78 | 1008.6 |
| 20260509061515 | 40 | 225 | 0.9 | 0.0 | 0.00 | 0.00 | 0.00 | 79 | 1008.8 |
| 20260509060016 | 39 | 217 | 0.9 | 0.0 | 0.00 | 0.00 | 0.00 | 80 | 1008.9 |
| 20260509054513 | 40 | 267 | 0.9 | 0.0 | 0.00 | 0.00 | 0.00 | 80 | 1009.0 |
| 20260509053013 | 40 | 236 | 0.9 | 0.0 | 0.00 | 0.00 | 0.00 | 79 | 1009.0 |
| 20260509051511 | 40 | 210 | 1.7 | 0.0 | 0.00 | 0.00 | 0.00 | 79 | 1009.1 |
| 20260509050010 | 40 | 202 | 1.7 | 0.0 | 0.00 | 0.00 | 0.00 | 79 | 1009.2 |
| 20260509044509 | 40 | 202 | 1.7 | 0.0 | 0.00 | 0.00 | 0.00 | 79 | 1009.3 |
| 20260509043008 | 40 | 229 | 0.9 | 0.0 | 0.00 | 0.00 | 0.00 | 77 | 1009.3 |
| 20260509041508 | 40 | 225 | 1.7 | 0.0 | 0.00 | 0.00 | 0.00 | 76 | 1009.3 |
| 20260509040004 | 40 | 237 | 0.9 | 0.0 | 0.00 | 0.00 | 0.00 | 75 | 1009.3 |
| 20260509034503 | 41 | 205 | 0.0 | 0.0 | 0.00 | 0.00 | 0.00 | 74 | 1009.2 |
| 20260509033003 | 41 | 205 | 1.7 | 0.0 | 0.00 | 0.00 | 0.00 | 74 | 1009.2 |
| 20260509031501 | 42 | 211 | 1.7 | 0.0 | 0.00 | 0.00 | 0.00 | 73 | 1009.3 |
| 20260509030003 | 42 | 223 | 1.7 | 0.0 | 0.00 | 0.00 | 0.00 | 72 | 1009.4 |
| 20260509024602 | 42 | 236 | 0.9 | 0.0 | 0.00 | 0.00 | 0.00 | 71 | 1009.4 |
| 20260509023105 | 43 | 233 | 0.9 | 0.0 | 0.00 | 0.00 | 0.00 | 70 | 1009.6 |